| time (UTC) | temp F | wind direction | speed MPH | gust MPH | rain 1hr in | rain 24hr in | rain mn in | humidity % | barometer mb |
| 20260905213704 | 73 | 350 | 2.0 | 3.0 | 0.00 | 0.00 | 0.00 | 72 | 1011.2 |
| 20260905213205 | 73 | 39 | 2.0 | 3.0 | 0.00 | 0.00 | 0.00 | 73 | 1011.2 |
| 20260905212204 | 73 | 347 | 2.0 | 3.0 | 0.00 | 0.00 | 0.00 | 76 | 1011.0 |
| 20260905211204 | 72 | 332 | 1.0 | 2.0 | 0.00 | 0.00 | 0.00 | 75 | 1011.2 |
| 20260905210704 | 73 | 292 | 1.0 | 3.0 | 0.00 | 0.00 | 0.00 | 74 | 1011.1 |
| 20260905210204 | 73 | 14 | 2.0 | 3.0 | 0.00 | 0.00 | 0.00 | 72 | 1011.1 |
| 20260905205704 | 74 | 26 | 2.0 | 3.0 | 0.00 | 0.00 | 0.00 | 72 | 1011.2 |
| 20260905205205 | 74 | 55 | 1.0 | 3.0 | 0.00 | 0.00 | 0.00 | 72 | 1011.0 |
| 20260905204703 | 75 | 16 | 1.0 | 3.0 | 0.00 | 0.00 | 0.00 | 70 | 1011.0 |
| 20260905203704 | 76 | 75 | 1.0 | 2.0 | 0.00 | 0.00 | 0.00 | 74 | 1010.9 |
| 20260905203204 | 76 | 324 | 1.0 | 3.0 | 0.00 | 0.00 | 0.00 | 72 | 1011.0 |
| 20260905202704 | 75 | 306 | 1.0 | 3.0 | 0.00 | 0.00 | 0.00 | 74 | 1010.9 |
| 20260905202204 | 76 | 5 | 2.0 | 5.0 | 0.00 | 0.00 | 0.00 | 72 | 1010.9 |
| 20260905201703 | 76 | 270 | 1.0 | 3.0 | 0.00 | 0.00 | 0.00 | 72 | 1010.8 |
| 20260905201203 | 77 | 100 | 2.0 | 3.0 | 0.00 | 0.00 | 0.00 | 72 | 1010.9 |
| 20260905200703 | 76 | 135 | 1.0 | 2.0 | 0.00 | 0.00 | 0.00 | 71 | 1010.8 |
| 20260905200204 | 76 | 223 | 1.0 | 3.0 | 0.00 | 0.00 | 0.00 | 71 | 1010.8 |
| 20260905195704 | 76 | 14 | 2.0 | 3.0 | 0.00 | 0.00 | 0.00 | 73 | 1010.7 |
| 20260905195204 | 76 | 10 | 1.0 | 6.0 | 0.00 | 0.00 | 0.00 | 72 | 1010.7 |
| 20260905194704 | 76 | 59 | 3.0 | 12.0 | 0.00 | 0.00 | 0.00 | 73 | 1010.7 |
| 20260905194204 | 76 | 74 | 2.0 | 6.0 | 0.00 | 0.00 | 0.00 | 74 | 1010.7 |
| 20260905193703 | 75 | 324 | 0.0 | 2.0 | 0.00 | 0.00 | 0.00 | 73 | 1010.8 |
| 20260905193204 | 75 | 347 | 1.0 | 9.0 | 0.00 | 0.00 | 0.00 | 76 | 1010.7 |
| 20260905192704 | 74 | 63 | 1.0 | 5.0 | 0.00 | 0.00 | 0.00 | 78 | 1010.7 |
| 20260905192204 | 73 | 333 | 1.0 | 3.0 | 0.00 | 0.00 | 0.00 | 78 | 1010.8 |
| 20260905191704 | 73 | 107 | 1.0 | 3.0 | 0.00 | 0.00 | 0.00 | 79 | 1010.9 |
| 20260905191204 | 73 | 10 | 1.0 | 2.0 | 0.00 | 0.00 | 0.00 | 79 | 1010.8 |
| 20260905190704 | 73 | 25 | 0.0 | 2.0 | 0.00 | 0.00 | 0.00 | 78 | 1010.9 |
| 20260905190204 | 73 | 350 | 1.0 | 3.0 | 0.00 | 0.00 | 0.00 | 79 | 1011.0 |
| 20260905185705 | 73 | 347 | 1.0 | 3.0 | 0.00 | 0.00 | 0.00 | 78 | 1011.0 |
| 20260905185204 | 73 | 340 | 1.0 | 3.0 | 0.00 | 0.00 | 0.00 | 75 | 1011.1 |
| 20260905184704 | 73 | 45 | 1.0 | 3.0 | 0.00 | 0.00 | 0.00 | 76 | 1011.0 |
| 20260905184203 | 73 | 65 | 1.0 | 3.0 | 0.00 | 0.00 | 0.00 | 76 | 1011.0 |
| 20260905183703 | 72 | 331 | 1.0 | 3.0 | 0.00 | 0.00 | 0.00 | 78 | 1010.9 |
| 20260905183203 | 72 | 345 | 1.0 | 5.0 | 0.00 | 0.00 | 0.00 | 77 | 1011.0 |
| 20260905182205 | 72 | 187 | 1.0 | 3.0 | 0.00 | 0.00 | 0.00 | 77 | 1011.0 |
| 20260905180203 | 73 | 336 | 1.0 | 2.0 | 0.00 | 0.00 | 0.00 | 79 | 1010.8 |
| 20260905175704 | 72 | 346 | 1.0 | 3.0 | 0.00 | 0.00 | 0.00 | 78 | 1010.8 |
| 20260905174704 | 73 | 304 | 2.0 | 3.0 | 0.00 | 0.00 | 0.00 | 75 | 1010.9 |
| 20260905174204 | 74 | 355 | 1.0 | 3.0 | 0.00 | 0.00 | 0.00 | 74 | 1010.9 |
| 20260905173704 | 75 | 161 | 2.0 | 5.0 | 0.00 | 0.00 | 0.00 | 73 | 1010.9 |
| 20260905172704 | 73 | 52 | 1.0 | 2.0 | 0.00 | 0.00 | 0.00 | 76 | 1011.0 |
| 20260905172204 | 73 | 22 | 2.0 | 3.0 | 0.00 | 0.00 | 0.00 | 77 | 1010.9 |
| 20260905171703 | 73 | 311 | 1.0 | 5.0 | 0.00 | 0.00 | 0.00 | 75 | 1010.9 |
| 20260905171204 | 74 | 334 | 2.0 | 5.0 | 0.00 | 0.00 | 0.00 | 73 | 1010.9 |
| 20260905170704 | 74 | 343 | 2.0 | 6.0 | 0.00 | 0.00 | 0.00 | 78 | 1010.9 |
| 20260905170203 | 72 | 22 | 2.0 | 3.0 | 0.00 | 0.00 | 0.00 | 79 | 1010.9 |
| 20260905165704 | 73 | 15 | 0.0 | 3.0 | 0.00 | 0.00 | 0.00 | 77 | 1010.9 |
| 20260905165204 | 73 | 338 | 2.0 | 3.0 | 0.00 | 0.00 | 0.00 | 76 | 1010.9 |
| 20260905164704 | 73 | 7 | 2.0 | 3.0 | 0.00 | 0.00 | 0.00 | 78 | 1010.9 |
| 20260905164204 | 72 | 356 | 2.0 | 5.0 | 0.00 | 0.00 | 0.00 | 77 | 1010.9 |
| 20260905163703 | 73 | 343 | 3.0 | 8.0 | 0.00 | 0.00 | 0.00 | 75 | 1010.9 |
| 20260905163203 | 73 | 63 | 1.0 | 3.0 | 0.00 | 0.00 | 0.00 | 77 | 1010.9 |
| 20260905162703 | 72 | 318 | 1.0 | 3.0 | 0.00 | 0.00 | 0.00 | 80 | 1010.8 |
| 20260905161704 | 72 | 326 | 2.0 | 3.0 | 0.00 | 0.00 | 0.00 | 78 | 1011.0 |
| 20260905160703 | 72 | 341 | 1.0 | 3.0 | 0.00 | 0.00 | 0.00 | 79 | 1011.1 |
| 20260905160204 | 72 | 340 | 1.0 | 3.0 | 0.00 | 0.00 | 0.00 | 79 | 1011.2 |
| 20260905155704 | 71 | 88 | 2.0 | 7.0 | 0.00 | 0.00 | 0.00 | 79 | 1011.3 |
| 20260905155204 | 71 | 97 | 1.0 | 3.0 | 0.00 | 0.00 | 0.00 | 80 | 1011.3 |
| 20260905154703 | 70 | 348 | 2.0 | 3.0 | 0.00 | 0.00 | 0.00 | 81 | 1011.3 |
| 20260905154203 | 70 | 7 | 3.0 | 8.0 | 0.00 | 0.00 | 0.00 | 81 | 1011.3 |
| 20260905153703 | 70 | 23 | 2.0 | 3.0 | 0.00 | 0.00 | 0.00 | 80 | 1011.3 |
| 20260905153204 | 71 | 61 | 2.0 | 3.0 | 0.00 | 0.00 | 0.00 | 78 | 1011.3 |
| 20260905152704 | 71 | 231 | 1.0 | 3.0 | 0.00 | 0.00 | 0.00 | 77 | 1011.3 |
| 20260905152205 | 72 | 355 | 1.0 | 2.0 | 0.00 | 0.00 | 0.00 | 79 | 1011.3 |
| 20260905151705 | 72 | 38 | 1.0 | 5.0 | 0.00 | 0.00 | 0.00 | 78 | 1011.4 |
| 20260905151203 | 71 | 358 | 3.0 | 7.0 | 0.00 | 0.00 | 0.00 | 76 | 1011.3 |
| 20260905150703 | 70 | 339 | 2.0 | 6.0 | 0.00 | 0.00 | 0.00 | 79 | 1011.2 |
| 20260905150204 | 69 | 344 | 2.0 | 5.0 | 0.00 | 0.00 | 0.00 | 82 | 1011.3 |
| 20260905145703 | 69 | 358 | 1.0 | 3.0 | 0.00 | 0.00 | 0.00 | 81 | 1011.3 |
| 20260905145203 | 69 | 4 | 2.0 | 3.0 | 0.00 | 0.00 | 0.00 | 80 | 1011.1 |
| 20260905144704 | 70 | 9 | 2.0 | 3.0 | 0.00 | 0.00 | 0.00 | 79 | 1011.2 |
| 20260905144204 | 72 | 102 | 1.0 | 3.0 | 0.00 | 0.00 | 0.00 | 77 | 1011.1 |
| 20260905143203 | 72 | 358 | 1.0 | 3.0 | 0.00 | 0.00 | 0.00 | 77 | 1010.9 |
| 20260905142703 | 72 | 50 | 1.0 | 5.0 | 0.00 | 0.00 | 0.00 | 77 | 1011.0 |
| 20260905142203 | 71 | 105 | 2.0 | 8.0 | 0.00 | 0.00 | 0.00 | 77 | 1011.0 |
| 20260905141703 | 71 | 174 | 3.0 | 9.0 | 0.00 | 0.00 | 0.00 | 76 | 1011.1 |
| 20260905141203 | 71 | 51 | 3.0 | 10.0 | 0.00 | 0.00 | 0.00 | 78 | 1011.1 |
| 20260905140703 | 71 | 338 | 2.0 | 5.0 | 0.00 | 0.00 | 0.00 | 78 | 1011.1 |
| 20260905140204 | 71 | 341 | 0.0 | 3.0 | 0.00 | 0.00 | 0.00 | 79 | 1011.2 |
| 20260905135703 | 70 | 0 | 1.0 | 3.0 | 0.00 | 0.00 | 0.00 | 79 | 1011.1 |
| 20260905135204 | 70 | 10 | 1.0 | 3.0 | 0.00 | 0.00 | 0.00 | 78 | 1011.0 |
| 20260905134704 | 70 | 338 | 1.0 | 3.0 | 0.00 | 0.00 | 0.00 | 79 | 1011.0 |
| 20260905133703 | 70 | 318 | 1.0 | 3.0 | 0.00 | 0.00 | 0.00 | 83 | 1011.2 |
| 20260905133204 | 70 | 341 | 0.0 | 2.0 | 0.00 | 0.00 | 0.00 | 81 | 1011.3 |
| 20260905132704 | 70 | 302 | 1.0 | 3.0 | 0.00 | 0.00 | 0.00 | 83 | 1011.4 |
| 20260905132204 | 69 | 326 | 0.0 | 0.0 | 0.00 | 0.00 | 0.00 | 84 | 1011.3 |
| 20260905131704 | 69 | 301 | 1.0 | 2.0 | 0.00 | 0.00 | 0.00 | 85 | 1011.2 |
| 20260905130704 | 68 | 338 | 0.0 | 0.0 | 0.00 | 0.00 | 0.00 | 84 | 1011.2 |
| 20260905130203 | 67 | 333 | 1.0 | 2.0 | 0.00 | 0.00 | 0.00 | 86 | 1011.2 |
| 20260905125704 | 67 | 6 | 0.0 | 2.0 | 0.00 | 0.00 | 0.00 | 87 | 1011.4 |
| 20260905125203 | 67 | 293 | 1.0 | 2.0 | 0.00 | 0.00 | 0.00 | 86 | 1011.4 |
| 20260905124703 | 66 | 354 | 1.0 | 2.0 | 0.00 | 0.00 | 0.00 | 88 | 1011.5 |
| 20260905124205 | 66 | 326 | 0.0 | 1.0 | 0.00 | 0.00 | 0.00 | 89 | 1011.6 |
| 20260905123703 | 65 | 279 | 0.0 | 0.0 | 0.00 | 0.00 | 0.00 | 89 | 1011.6 |
| 20260905122704 | 64 | 275 | 0.0 | 0.0 | 0.00 | 0.00 | 0.00 | 91 | 1011.3 |
| 20260905122204 | 64 | 236 | 0.0 | 1.0 | 0.00 | 0.00 | 0.00 | 92 | 1011.3 |
| 20260905121705 | 63 | 311 | 0.0 | 1.0 | 0.00 | 0.00 | 0.00 | 93 | 1011.1 |
| 20260905121203 | 63 | 327 | 0.0 | 1.0 | 0.00 | 0.00 | 0.00 | 93 | 1011.0 |
| 20260905120703 | 62 | 37 | 0.0 | 0.0 | 0.00 | 0.00 | 0.00 | 95 | 1011.0 |
| 20260905120204 | 61 | 109 | 0.0 | 0.0 | 0.00 | 0.00 | 0.00 | 96 | 1011.0 |
| 20260905115703 | 60 | 107 | 0.0 | 0.0 | 0.00 | 0.00 | 0.00 | 97 | 1011.0 |
| 20260905115204 | 60 | 125 | 0.0 | 0.0 | 0.00 | 0.00 | 0.00 | 97 | 1010.8 |
| 20260905114704 | 59 | 125 | 0.0 | 0.0 | 0.00 | 0.00 | 0.00 | 97 | 1010.9 |
| 20260905114204 | 59 | 125 | 0.0 | 3.0 | 0.00 | 0.00 | 0.00 | 97 | 1010.9 |
| 20260905113203 | 58 | 138 | 0.0 | 1.0 | 0.00 | 0.00 | 0.00 | 98 | 1010.7 |
| 20260905112703 | 57 | 173 | 0.0 | 0.0 | 0.00 | 0.00 | 0.00 | 98 | 1010.8 |
| 20260905111704 | 57 | 173 | 0.0 | 0.0 | 0.00 | 0.00 | 0.00 | 98 | 1010.8 |
| 20260905110704 | 56 | 173 | 0.0 | 0.0 | 0.00 | 0.00 | 0.00 | 98 | 1010.7 |
| 20260905110203 | 56 | 173 | 0.0 | 0.0 | 0.00 | 0.00 | 0.00 | 98 | 1010.5 |
| 20260905105704 | 55 | 173 | 0.0 | 0.0 | 0.00 | 0.00 | 0.00 | 98 | 1010.4 |
| 20260905105204 | 55 | 173 | 0.0 | 0.0 | 0.00 | 0.00 | 0.00 | 98 | 1010.3 |
| 20260905104204 | 55 | 173 | 0.0 | 0.0 | 0.00 | 0.00 | 0.00 | 98 | 1010.1 |
| 20260905103204 | 56 | 211 | 0.0 | 0.0 | 0.00 | 0.00 | 0.00 | 98 | 1010.1 |
| 20260905102703 | 56 | 211 | 0.0 | 0.0 | 0.00 | 0.00 | 0.00 | 98 | 1010.0 |
| 20260905102203 | 56 | 211 | 0.0 | 0.0 | 0.00 | 0.00 | 0.00 | 98 | 1010.0 |
| 20260905101704 | 56 | 211 | 0.0 | 0.0 | 0.00 | 0.00 | 0.00 | 98 | 1009.9 |
| 20260905101204 | 56 | 230 | 0.0 | 0.0 | 0.00 | 0.00 | 0.00 | 98 | 1009.8 |
| 20260905100703 | 56 | 333 | 0.0 | 0.0 | 0.00 | 0.00 | 0.00 | 98 | 1009.8 |
| 20260905100205 | 56 | 236 | 0.0 | 1.0 | 0.00 | 0.00 | 0.00 | 98 | 1009.8 |
| 20260905095704 | 56 | 236 | 0.0 | 0.0 | 0.00 | 0.00 | 0.00 | 98 | 1009.9 |
| 20260905095204 | 56 | 236 | 0.0 | 0.0 | 0.00 | 0.00 | 0.00 | 98 | 1009.8 |
| 20260905094704 | 56 | 236 | 0.0 | 0.0 | 0.00 | 0.00 | 0.00 | 97 | 1009.7 |
| 20260905094204 | 56 | 236 | 0.0 | 0.0 | 0.00 | 0.00 | 0.00 | 97 | 1009.8 |
| 20260905093204 | 56 | 236 | 0.0 | 1.0 | 0.00 | 0.00 | 0.00 | 97 | 1009.7 |
| 20260905092205 | 57 | 236 | 0.0 | 1.0 | 0.00 | 0.00 | 0.00 | 98 | 1009.7 |
| 20260905091705 | 57 | 190 | 0.0 | 1.0 | 0.00 | 0.00 | 0.00 | 98 | 1009.6 |
| 20260905091204 | 57 | 100 | 0.0 | 1.0 | 0.00 | 0.00 | 0.00 | 98 | 1009.6 |
| 20260905090704 | 57 | 100 | 0.0 | 2.0 | 0.00 | 0.00 | 0.00 | 97 | 1009.7 |
| 20260905085705 | 57 | 119 | 1.0 | 1.0 | 0.00 | 0.00 | 0.00 | 98 | 1009.7 |
| 20260905085205 | 57 | 119 | 0.0 | 1.0 | 0.00 | 0.00 | 0.00 | 98 | 1009.7 |
| 20260905084704 | 57 | 119 | 0.0 | 0.0 | 0.00 | 0.00 | 0.00 | 98 | 1009.7 |
| 20260905084204 | 57 | 119 | 0.0 | 0.0 | 0.00 | 0.00 | 0.00 | 98 | 1009.7 |
| 20260905080705 | 56 | 94 | 0.0 | 0.0 | 0.00 | 0.00 | 0.00 | 97 | 1009.8 |
| 20260905075705 | 56 | 87 | 1.0 | 3.0 | 0.00 | 0.00 | 0.00 | 96 | 1009.9 |
| 20260905075205 | 56 | 222 | 0.0 | 0.0 | 0.00 | 0.00 | 0.00 | 96 | 1009.9 |
| 20260905074704 | 57 | 222 | 0.0 | 0.0 | 0.00 | 0.00 | 0.00 | 97 | 1010.0 |
| 20260905074204 | 57 | 236 | 0.0 | 0.0 | 0.00 | 0.00 | 0.00 | 97 | 1009.9 |
| 20260905073704 | 57 | 236 | 0.0 | 0.0 | 0.00 | 0.00 | 0.00 | 97 | 1010.0 |
| 20260905072705 | 57 | 203 | 0.0 | 0.0 | 0.00 | 0.00 | 0.00 | 98 | 1010.0 |
| 20260905072204 | 57 | 111 | 0.0 | 0.0 | 0.00 | 0.00 | 0.00 | 97 | 1010.0 |
| 20260905071704 | 57 | 114 | 0.0 | 0.0 | 0.00 | 0.00 | 0.00 | 97 | 1010.0 |
| 20260905071204 | 57 | 129 | 0.0 | 0.0 | 0.00 | 0.00 | 0.00 | 97 | 1010.0 |
| 20260905070704 | 57 | 117 | 0.0 | 0.0 | 0.00 | 0.00 | 0.00 | 97 | 1010.0 |
| 20260905070204 | 57 | 132 | 0.0 | 0.0 | 0.00 | 0.00 | 0.00 | 97 | 1010.0 |
| 20260905065705 | 57 | 137 | 0.0 | 2.0 | 0.00 | 0.00 | 0.00 | 97 | 1010.2 |
| 20260905064704 | 57 | 107 | 0.0 | 2.0 | 0.00 | 0.00 | 0.00 | 96 | 1010.2 |
| 20260905063204 | 57 | 126 | 0.0 | 0.0 | 0.00 | 0.00 | 0.00 | 96 | 1010.3 |
| 20260905062704 | 57 | 126 | 0.0 | 0.0 | 0.00 | 0.00 | 0.00 | 96 | 1010.3 |
| 20260905062204 | 58 | 126 | 0.0 | 0.0 | 0.00 | 0.00 | 0.00 | 96 | 1010.3 |
| 20260905061204 | 58 | 126 | 0.0 | 0.0 | 0.00 | 0.00 | 0.00 | 96 | 1010.3 |
| 20260905060705 | 58 | 131 | 0.0 | 0.0 | 0.00 | 0.00 | 0.00 | 96 | 1010.4 |
| 20260905060205 | 58 | 181 | 0.0 | 0.0 | 0.00 | 0.00 | 0.00 | 96 | 1010.4 |
| 20260905055704 | 58 | 181 | 0.0 | 0.0 | 0.00 | 0.00 | 0.00 | 96 | 1010.5 |
| 20260905055204 | 59 | 183 | 0.0 | 0.0 | 0.00 | 0.00 | 0.00 | 96 | 1010.4 |
| 20260905054704 | 58 | 140 | 0.0 | 0.0 | 0.00 | 0.00 | 0.00 | 96 | 1010.4 |
| 20260905054205 | 58 | 136 | 1.0 | 3.0 | 0.00 | 0.00 | 0.00 | 96 | 1010.5 |
| 20260905053704 | 58 | 127 | 1.0 | 2.0 | 0.00 | 0.00 | 0.00 | 95 | 1010.4 |
| 20260905053204 | 59 | 118 | 1.0 | 2.0 | 0.00 | 0.00 | 0.00 | 96 | 1010.3 |
| 20260905052704 | 59 | 123 | 0.0 | 0.0 | 0.00 | 0.00 | 0.00 | 96 | 1010.3 |
| 20260905052204 | 59 | 123 | 0.0 | 0.0 | 0.00 | 0.00 | 0.00 | 96 | 1010.4 |
| 20260905051704 | 59 | 123 | 0.0 | 1.0 | 0.00 | 0.00 | 0.00 | 96 | 1010.5 |
| 20260905051205 | 59 | 127 | 1.0 | 2.0 | 0.00 | 0.00 | 0.00 | 95 | 1010.5 |
| 20260905050706 | 59 | 101 | 1.0 | 2.0 | 0.00 | 0.00 | 0.00 | 94 | 1010.6 |
| 20260905050205 | 59 | 103 | 1.0 | 2.0 | 0.00 | 0.00 | 0.00 | 93 | 1010.5 |
| 20260905045204 | 59 | 174 | 0.0 | 1.0 | 0.00 | 0.00 | 0.00 | 94 | 1010.7 |
| 20260905044704 | 59 | 174 | 0.0 | 1.0 | 0.00 | 0.00 | 0.00 | 94 | 1010.7 |
| 20260905044204 | 60 | 165 | 0.0 | 1.0 | 0.00 | 0.00 | 0.00 | 93 | 1010.7 |
| 20260905043704 | 60 | 123 | 0.0 | 1.0 | 0.00 | 0.00 | 0.00 | 93 | 1010.8 |
| 20260905043204 | 60 | 138 | 0.0 | 1.0 | 0.00 | 0.00 | 0.00 | 93 | 1010.8 |
| 20260905042704 | 60 | 138 | 0.0 | 0.0 | 0.00 | 0.00 | 0.00 | 92 | 1010.9 |
| 20260905042204 | 60 | 138 | 0.0 | 1.0 | 0.00 | 0.00 | 0.00 | 92 | 1010.8 |
| 20260905041705 | 60 | 156 | 0.0 | 1.0 | 0.00 | 0.00 | 0.00 | 92 | 1010.8 |
| 20260905040704 | 61 | 259 | 0.0 | 1.0 | 0.00 | 0.00 | 0.00 | 90 | 1010.7 |
| 20260905040204 | 61 | 259 | 1.0 | 2.0 | 0.00 | 0.00 | 0.00 | 91 | 1010.8 |
| 20260905035204 | 61 | 135 | 0.0 | 1.0 | 0.00 | 0.00 | 0.00 | 91 | 1010.9 |
| 20260905034204 | 61 | 135 | 0.0 | 0.0 | 0.00 | 0.00 | 0.00 | 90 | 1010.6 |
| 20260905033704 | 61 | 135 | 0.0 | 1.0 | 0.00 | 0.00 | 0.00 | 89 | 1010.5 |
| 20260905033205 | 62 | 135 | 1.0 | 1.0 | 0.00 | 0.00 | 0.00 | 88 | 1010.5 |
| 20260905031704 | 63 | 236 | 0.0 | 1.0 | 0.00 | 0.00 | 0.00 | 88 | 1010.6 |
| 20260905031204 | 63 | 236 | 0.0 | 1.0 | 0.00 | 0.00 | 0.00 | 88 | 1010.6 |
| 20260905030704 | 63 | 223 | 0.0 | 1.0 | 0.00 | 0.00 | 0.00 | 84 | 1010.6 |
| 20260905030204 | 64 | 206 | 0.0 | 2.0 | 0.00 | 0.00 | 0.00 | 83 | 1010.7 |
| 20260905024704 | 65 | 299 | 0.0 | 0.0 | 0.00 | 0.00 | 0.00 | 82 | 1010.8 |
| 20260905023204 | 66 | 299 | 0.0 | 0.0 | 0.00 | 0.00 | 0.00 | 79 | 1010.7 |
| 20260905022204 | 67 | 297 | 0.0 | 1.0 | 0.00 | 0.00 | 0.00 | 76 | 1010.8 |
| 20260905021704 | 67 | 292 | 0.0 | 2.0 | 0.00 | 0.00 | 0.00 | 76 | 1010.8 |
| 20260905020704 | 67 | 302 | 0.0 | 0.0 | 0.00 | 0.00 | 0.00 | 77 | 1010.8 |
| 20260905020204 | 67 | 302 | 0.0 | 0.0 | 0.00 | 0.00 | 0.00 | 77 | 1010.8 |
| 20260905015205 | 67 | 284 | 0.0 | 0.0 | 0.00 | 0.00 | 0.00 | 76 | 1010.9 |
| 20260905014704 | 67 | 272 | 0.0 | 0.0 | 0.00 | 0.00 | 0.00 | 76 | 1011.0 |
| 20260905014203 | 67 | 272 | 0.0 | 1.0 | 0.00 | 0.00 | 0.00 | 76 | 1010.9 |
| 20260905013204 | 67 | 285 | 2.0 | 3.0 | 0.00 | 0.00 | 0.00 | 77 | 1010.9 |
| 20260905012704 | 67 | 284 | 2.0 | 7.0 | 0.00 | 0.00 | 0.00 | 76 | 1010.9 |
| 20260905012204 | 67 | 275 | 1.0 | 3.0 | 0.00 | 0.00 | 0.00 | 77 | 1010.9 |
| 20260905010704 | 68 | 295 | 1.0 | 3.0 | 0.00 | 0.00 | 0.00 | 76 | 1010.8 |
| 20260905010204 | 68 | 306 | 1.0 | 2.0 | 0.00 | 0.00 | 0.00 | 76 | 1010.7 |
| 20260905005704 | 68 | 328 | 1.0 | 3.0 | 0.00 | 0.00 | 0.00 | 77 | 1010.8 |
| 20260905004704 | 68 | 296 | 1.0 | 7.0 | 0.00 | 0.00 | 0.00 | 76 | 1010.7 |
| 20260905004204 | 68 | 279 | 2.0 | 3.0 | 0.00 | 0.00 | 0.00 | 75 | 1010.7 |
| 20260905003704 | 69 | 291 | 2.0 | 5.0 | 0.00 | 0.00 | 0.00 | 75 | 1010.6 |
| 20260905003204 | 69 | 305 | 1.0 | 3.0 | 0.00 | 0.00 | 0.00 | 75 | 1010.6 |
| 20260905002704 | 69 | 300 | 1.0 | 3.0 | 0.00 | 0.00 | 0.00 | 75 | 1010.6 |
| 20260905002204 | 69 | 276 | 0.0 | 2.0 | 0.00 | 0.00 | 0.00 | 75 | 1010.5 |
| 20260905001704 | 69 | 287 | 1.0 | 2.0 | 0.00 | 0.00 | 0.00 | 74 | 1010.5 |
| 20260905001203 | 69 | 288 | 1.0 | 3.0 | 0.00 | 0.00 | 0.00 | 75 | 1010.3 |
| 20260905000704 | 69 | 290 | 2.0 | 3.0 | 0.00 | 0.00 | 0.00 | 74 | 1010.3 |
| 20260905000204 | 69 | 291 | 2.0 | 3.0 | 0.00 | 0.00 | 0.00 | 74 | 1010.4 |
| 20260904235704 | 69 | 294 | 2.0 | 5.0 | 0.00 | 0.00 | 0.00 | 75 | 1010.3 |
| 20260904235203 | 69 | 290 | 2.0 | 12.0 | 0.00 | 0.00 | 0.00 | 73 | 1010.1 |
| 20260904234704 | 70 | 303 | 2.0 | 3.0 | 0.00 | 0.00 | 0.00 | 73 | 1010.2 |
| 20260904234204 | 70 | 288 | 3.0 | 5.0 | 0.00 | 0.00 | 0.00 | 72 | 1010.1 |
| 20260904233704 | 70 | 289 | 2.0 | 6.0 | 0.00 | 0.00 | 0.00 | 73 | 1010.2 |
| 20260904232704 | 70 | 284 | 5.0 | 8.0 | 0.00 | 0.00 | 0.00 | 76 | 1010.2 |
| 20260904232204 | 70 | 297 | 3.0 | 7.0 | 0.00 | 0.00 | 0.00 | 73 | 1010.1 |
| 20260904231204 | 71 | 289 | 2.0 | 5.0 | 0.00 | 0.00 | 0.00 | 74 | 1010.0 |
| 20260904230704 | 71 | 297 | 2.0 | 3.0 | 0.00 | 0.00 | 0.00 | 74 | 1010.1 |
| 20260904230204 | 71 | 293 | 3.0 | 6.0 | 0.00 | 0.00 | 0.00 | 74 | 1010.0 |
| 20260904225704 | 72 | 293 | 3.0 | 6.0 | 0.00 | 0.00 | 0.00 | 74 | 1010.0 |
| 20260904225204 | 72 | 287 | 2.0 | 6.0 | 0.00 | 0.00 | 0.00 | 75 | 1010.0 |
| 20260904224704 | 72 | 286 | 3.0 | 8.0 | 0.00 | 0.00 | 0.00 | 76 | 1009.9 |
| 20260904224204 | 72 | 292 | 3.0 | 7.0 | 0.00 | 0.00 | 0.00 | 74 | 1009.8 |
| 20260904223704 | 73 | 280 | 3.0 | 5.0 | 0.00 | 0.00 | 0.00 | 74 | 1009.7 |
| 20260904222703 | 73 | 290 | 4.0 | 9.0 | 0.00 | 0.00 | 0.00 | 74 | 1009.6 |
| 20260904222204 | 74 | 295 | 3.0 | 6.0 | 0.00 | 0.00 | 0.00 | 72 | 1009.6 |
| 20260904221705 | 74 | 291 | 3.0 | 7.0 | 0.00 | 0.00 | 0.00 | 72 | 1009.6 |
| 20260904221205 | 75 | 287 | 6.0 | 10.0 | 0.00 | 0.00 | 0.00 | 69 | 1009.5 |
| 20260904220205 | 76 | 289 | 5.0 | 8.0 | 0.00 | 0.00 | 0.00 | 67 | 1009.4 |
| 20260904215704 | 77 | 281 | 5.0 | 9.0 | 0.00 | 0.00 | 0.00 | 68 | 1009.3 |
| 20260904215205 | 77 | 295 | 4.0 | 7.0 | 0.00 | 0.00 | 0.00 | 68 | 1009.5 |
| 20260904214705 | 77 | 297 | 5.0 | 9.0 | 0.00 | 0.00 | 0.00 | 68 | 1009.5 |
| 20260904214204 | 78 | 287 | 4.0 | 7.0 | 0.00 | 0.00 | 0.00 | 67 | 1009.5 |